Weather Roundup
Issued by NWS Corpus Christi, TX

Home | Current Version | Previous Version | Text Only | Print | Product List | Glossary On
Versions: 1 2 3 4 5 6 7 8 9 10 11 12 13 14 15 16 17 18 19 20 21 22 23 24 25 26 27 28 29 30 31 32 33 34 35 36 37 38 39 40 41 42 43 44 45 46 47 48 49 50
000
ASUS44 KCRP 271010
HRRCRP

SOUTH TEXAS REGIONAL WEATHER ROUNDUP
NATIONAL WEATHER SERVICE CORPUS CHRISTI TX
500 AM CDT SAT MAY 27 2017


TXZ229>244-271100-
...CORPUS CHRISTI AREA OBSERVATIONS...

CITY           SKY/WX    TMP DP  RH WIND       PRES   REMARKS
CORPUS CHRISTI CLOUDY    81  77  88 S15       29.85F
NAS CORPUS CHR CLOUDY    82  78  88 S17G24    29.86R HX  91
ROCKPORT       CLOUDY    81  76  84 S12G18    29.86F
KINGSVILLE NAS CLOUDY    81  79  94 S10       29.85S HX  90
ALICE          CLOUDY    79  76  90 SE10      29.84F
ORANGE GROVE   MOCLDY    79  77  94 S10       29.85F
FALFURRIAS     CLOUDY    80  76  89 S10       29.83F
$$

...VICTORIA AREA OBSERVATIONS...

CITY           SKY/WX    TMP DP  RH WIND       PRES   REMARKS
VICTORIA       CLOUDY    80  75  84 S8        29.89R
BEEVILLE       CLOUDY    79  79 100 S8        29.87S
PLEASANTON     MOCLDY    79  75  87 S6        29.85F FOG
SAN ANTONIO    CLOUDY    78  74  87 S10       29.87S
$$

...LAREDO AREA OBSERVATIONS...

CITY           SKY/WX    TMP DP  RH WIND       PRES   REMARKS
LAREDO         PTCLDY    81  75  82 SE16      29.81F HAZE
COTULLA        CLEAR     80  74  81 SE12      29.82F
DEL RIO        CLOUDY    78  76  93 E10       29.81S
MCALLEN        CLOUDY    82  77  84 SE13      29.84F HX  90
HEBBRONVILLE   PTCLDY    77  74  88 S3        29.85F FOG
$$

...OTHER TEXAS OBSERVATIONS...

CITY           SKY/WX    TMP DP  RH WIND       PRES   REMARKS
BROWNSVILLE    CLOUDY    82  77  84 S10       29.86F HX  90
HOUSTON        CLOUDY    80  75  84 S9        29.89S FOG
COL. STATION   CLOUDY    78  75  90 S13       29.86F
AUSTIN         CLOUDY    79  75  87 S12       29.85S
WACO           CLOUDY    79  75  87 S13       29.84R
FORT WORTH     CLOUDY    80  75  84 S14       29.79S
WICHITA FALLS  CLEAR     70  68  93 S8        29.74R
LUBBOCK        CLEAR     74  30  19 SW15      29.86R
EL PASO        CLEAR     78  28  16 W14       30.00R
$$

...MARINE OBSERVATIONS...

STATION/POSITION TIME  SKY/WX   TEMP    WIND        PRES    VSBY  WAVE   SWELL
                                AIR SEA DIR/SP/G                  HT/PER HT/PER
                 (UTC)          (F)     (DEG/KT/KT) (MB)    (MI)  (FT/S) (FT/S)
PORT ARANSAS     0900            80 81  160/ 18/ 21 1011.0R
BUOY 90 E PORT A 0950            80 79  150/ 14/ 17 1012.0R         4/ 6   2/15
BUOY 45 SE BAFFI 0950            81     170/ 17/ 21 1010.4R         6/ 7
BUOY 200 E PT IS 0950            80 80  150/ 21/ 23 1012.4F         5/ 6
BUOY 15 E GALVES 0950            80 79  190/ 17/ 21 1012.2R         4/ 6
$$




USA.gov is the U.S. government's official web portal to all federal, state and local government web resources and services.